Weather History for Pinedale, WY

Change the Weather History Date:

Tuesday, January 29, 2013

  Actual Average (KBPI) Record (KBPI)
Temperature  
Mean Temperature 6 °F 11 °F  
Max Temperature 19 °F 26 °F 38 °F (1988)
Min Temperature -7 °F -2 °F -30 °F (1979)
Degree Days  
Heating Degree Days 59 54  
Month to date heating degree days 1566  
Since 1 July heating degree days 6005  
Cooling Degree Days 0 0  
Month to date cooling degree days 0  
Year to date cooling degree days 0  
Moisture  
Dew Point -2 °F    
Average Humidity 78    
Maximum Humidity 92    
Minimum Humidity 58    
Precipitation  
Precipitation 0.00 in 0.01 in 0.01 in (2004)
Month to date precipitation 0.29  
Year to date precipitation 0.29  
Sea Level Pressure  
Sea Level Pressure 29.80 in    
Wind  
Wind Speed 7 mph (WNW)    
Max Wind Speed 17 mph    
Max Gust Speed 22 mph    
Visibility 10 miles    
Events Snow    
T = Trace of Precipitation, MM = Missing Value Source: NWS Daily Summary

Daily Weather History Graph

Daily Weather History Graph

Search for Another Location

Airport:

Trip Planner

Search our weather history database for the weather conditions in past years. The results will help you decide how hot, cold, wet, or windy it might be!

Date:

Astronomy

Jan. 29, 2013 Rise Set
Actual Time 7:36 AM MST 5:28 PM MST
Civil Twilight 7:06 AM MST 5:59 PM MST
Nautical Twilight 6:32 AM MST 6:33 PM MST
Astronomical Twilight 5:59 AM MST 7:06 PM MST
Moon 8:34 PM MST (1/29) 8:30 AM MST (1/29)
Length of Visible Light 10h 52m
Length of Day
9h 52m
Waning Gibbous, 93% of the Moon is Illuminated
Jan 29
Waning Gibbous
Feb 3
Last Quarter
Feb 10
New
Feb 17
First Quarter
Feb 25
Full

Hourly Weather History & Observations

Time (MST) Temp. Windchill Dew Point Humidity Pressure Visibility Wind Dir Wind Speed Gust Speed Precip Events Conditions
12:15 AM -4.0 °F - -7.6 °F 85% 29.75 in 10.0 mi Calm Calm - N/A   Mostly Cloudy
12:35 AM -7.6 °F -16.5 °F -13.0 °F 77% 29.75 in 10.0 mi WNW 3.5 mph - N/A   Mostly Cloudy
12:55 AM -7.6 °F -24.6 °F -11.2 °F 84% 29.74 in 10.0 mi West 9.2 mph - N/A   Scattered Clouds
1:15 AM -5.8 °F -14.5 °F -9.4 °F 84% 29.74 in 10.0 mi NNW 3.5 mph - N/A   Mostly Cloudy
1:35 AM -5.8 °F - -9.4 °F 84% 29.74 in 10.0 mi Calm Calm - N/A   Overcast
1:55 AM -7.6 °F -18.8 °F -11.2 °F 84% 29.74 in 10.0 mi WNW 4.6 mph - N/A   Overcast
2:15 AM -7.6 °F -18.8 °F -11.2 °F 84% 29.73 in 10.0 mi West 4.6 mph - N/A   Mostly Cloudy
2:35 AM -7.6 °F -18.8 °F -11.2 °F 84% 29.73 in 10.0 mi NNW 4.6 mph - N/A   Mostly Cloudy
2:55 AM -5.8 °F -16.7 °F -9.4 °F 84% 29.73 in 10.0 mi West 4.6 mph - N/A   Overcast
3:15 AM -7.6 °F -18.8 °F -13.0 °F 77% 29.72 in 10.0 mi WNW 4.6 mph - N/A   Mostly Cloudy
3:35 AM -5.8 °F -18.4 °F -9.4 °F 84% 29.72 in 7.0 mi West 5.8 mph - N/A   Overcast
3:55 AM -4.0 °F -21.2 °F -7.6 °F 85% 29.72 in 10.0 mi West 10.4 mph - N/A   Overcast
4:15 AM -4.0 °F -19.0 °F -7.6 °F 85% 29.71 in 10.0 mi WNW 8.1 mph - N/A   Overcast
4:35 AM -4.0 °F -16.3 °F -7.6 °F 85% 29.71 in 10.0 mi WNW 5.8 mph - N/A   Overcast
4:55 AM -4.0 °F -14.6 °F -7.6 °F 85% 29.71 in 4.0 mi NW 4.6 mph - N/A   Overcast
5:15 AM -4.0 °F -14.6 °F -7.6 °F 85% 29.70 in 10.0 mi West 4.6 mph - N/A   Overcast
5:35 AM -4.0 °F -14.6 °F -7.6 °F 85% 29.70 in 5.0 mi WNW 4.6 mph - N/A   Overcast
5:55 AM -4.0 °F -16.3 °F -7.6 °F 85% 29.70 in 5.0 mi NW 5.8 mph - N/A   Overcast
6:15 AM -5.8 °F -18.4 °F -9.4 °F 84% 29.71 in 5.0 mi West 5.8 mph - N/A Snow Light Snow
6:35 AM -5.8 °F -16.7 °F -7.6 °F 92% 29.71 in 7.0 mi WNW 4.6 mph - N/A   Mostly Cloudy
6:55 AM -4.0 °F -14.6 °F -7.6 °F 85% 29.71 in 4.0 mi NW 4.6 mph - N/A Snow Light Snow
7:15 AM -5.8 °F -16.7 °F -9.4 °F 84% 29.71 in 10.0 mi WNW 4.6 mph - N/A Snow Light Snow
7:35 AM -5.8 °F -14.5 °F -9.4 °F 84% 29.71 in 10.0 mi West 3.5 mph - N/A   Scattered Clouds
7:55 AM -5.8 °F -19.9 °F -9.4 °F 84% 29.72 in 7.0 mi WNW 6.9 mph - N/A Snow Light Snow
8:15 AM -7.6 °F -20.6 °F -13.0 °F 77% 29.72 in 10.0 mi West 5.8 mph - N/A   Scattered Clouds
8:35 AM -5.8 °F -21.2 °F -9.4 °F 84% 29.72 in 10.0 mi WNW 8.1 mph - N/A   Clear
8:55 AM -4.0 °F -19.0 °F -7.6 °F 85% 29.72 in 10.0 mi NW 8.1 mph - N/A   Clear
9:15 AM -2.2 °F -14.2 °F -5.8 °F 85% 29.73 in 10.0 mi WNW 5.8 mph - N/A   Clear
9:35 AM 1.4 °F -11.3 °F -4.0 °F 78% 29.73 in 10.0 mi WNW 6.9 mph - N/A   Clear
9:55 AM 1.4 °F -9.9 °F -2.2 °F 85% 29.74 in 10.0 mi WNW 5.8 mph - N/A   Scattered Clouds
10:15 AM 3.2 °F -6.2 °F 1.4 °F 92% 29.74 in 10.0 mi WNW 4.6 mph - N/A   Scattered Clouds
10:35 AM 6.8 °F -6.9 °F 3.2 °F 85% 29.75 in 10.0 mi NW 9.2 mph - N/A   Clear
10:55 AM 8.6 °F -6.3 °F 3.2 °F 79% 29.75 in 10.0 mi WNW 11.5 mph - N/A   Clear
11:15 AM 10.4 °F -0.4 °F 5.0 °F 79% 29.75 in 10.0 mi NW 6.9 mph - N/A   Scattered Clouds
11:35 AM 12.2 °F -1.8 °F 5.0 °F 73% 29.75 in 10.0 mi WNW 11.5 mph - N/A   Scattered Clouds
11:55 AM 12.2 °F -1.0 °F 5.0 °F 73% 29.75 in 10.0 mi NW 10.4 mph - N/A   Clear
12:15 PM 14.0 °F 0.5 °F 5.0 °F 67% 29.76 in 10.0 mi WNW 11.5 mph - N/A   Clear
12:35 PM 14.0 °F 1.2 °F 6.8 °F 73% 29.75 in 10.0 mi WNW 10.4 mph - N/A   Clear
12:55 PM 17.6 °F 2.2 °F 8.6 °F 68% 29.75 in 7.0 mi WNW 17.3 mph - N/A   Scattered Clouds
1:15 PM 17.6 °F 3.7 °F 8.6 °F 68% 29.75 in 10.0 mi WNW 13.8 mph - N/A   Clear
1:35 PM 17.6 °F 3.2 °F 8.6 °F 68% 29.76 in 10.0 mi WNW 15.0 mph - N/A   Scattered Clouds
1:55 PM 17.6 °F 3.2 °F 10.4 °F 73% 29.77 in 10.0 mi WNW 15.0 mph - N/A   Scattered Clouds
2:15 PM 17.6 °F 2.7 °F 10.4 °F 73% 29.77 in 10.0 mi NW 16.1 mph - N/A   Scattered Clouds
2:35 PM 17.6 °F 2.2 °F 8.6 °F 68% 29.77 in 10.0 mi WNW 17.3 mph - N/A   Mostly Cloudy
2:55 PM 19.4 °F 4.5 °F 10.4 °F 68% 29.78 in 10.0 mi WNW 17.3 mph - N/A   Scattered Clouds
3:15 PM 19.4 °F 5.0 °F 8.6 °F 63% 29.79 in 10.0 mi NW 16.1 mph - N/A   Scattered Clouds
3:35 PM 17.6 °F 2.2 °F 6.8 °F 63% 29.80 in 10.0 mi WNW 17.3 mph - N/A   Mostly Cloudy
3:55 PM 17.6 °F 2.7 °F 5.0 °F 58% 29.81 in 10.0 mi WNW 16.1 mph - N/A   Mostly Cloudy
4:15 PM 17.6 °F 2.7 °F 8.6 °F 68% 29.83 in 10.0 mi WNW 16.1 mph - N/A   Overcast
4:35 PM 17.6 °F 4.3 °F 8.6 °F 68% 29.84 in 10.0 mi NW 12.7 mph - N/A   Overcast
4:55 PM 17.6 °F 3.7 °F 8.6 °F 68% 29.85 in 10.0 mi NW 13.8 mph 21.9 mph N/A   Overcast
5:15 PM 14.0 °F -0.2 °F 5.0 °F 67% 29.87 in 10.0 mi WNW 12.7 mph - N/A   Overcast
5:35 PM 12.2 °F -0.2 °F 3.2 °F 67% 29.88 in 10.0 mi WNW 9.2 mph - N/A   Scattered Clouds
5:55 PM 14.0 °F 1.2 °F 5.0 °F 67% 29.89 in 10.0 mi NW 10.4 mph - N/A   Mostly Cloudy
6:15 PM 12.2 °F -0.2 °F 5.0 °F 73% 29.90 in 10.0 mi WNW 9.2 mph - N/A   Overcast
6:35 PM 10.4 °F -4.1 °F 3.2 °F 73% 29.91 in 10.0 mi WNW 11.5 mph - N/A   Overcast
6:55 PM 8.6 °F -5.5 °F 3.2 °F 79% 29.92 in 10.0 mi WNW 10.4 mph - N/A   Overcast
7:15 PM 8.6 °F -6.3 °F 1.4 °F 73% 29.93 in 10.0 mi WNW 11.5 mph - N/A   Scattered Clouds
7:35 PM 5.0 °F -6.9 °F -0.4 °F 78% 29.93 in 10.0 mi WNW 6.9 mph - N/A   Mostly Cloudy
7:55 PM 3.2 °F -7.8 °F -0.4 °F 85% 29.94 in 10.0 mi NW 5.8 mph - N/A   Overcast
8:15 PM 3.2 °F -10.3 °F -0.4 °F 85% 29.95 in 10.0 mi West 8.1 mph - N/A   Overcast
8:35 PM 5.0 °F -8.1 °F -0.4 °F 78% 29.95 in 10.0 mi WNW 8.1 mph - N/A   Overcast
8:55 PM 3.2 °F -9.1 °F -0.4 °F 85% 29.96 in 10.0 mi WNW 6.9 mph - N/A   Overcast
9:15 PM 5.0 °F -10.0 °F 1.4 °F 85% 29.96 in 10.0 mi WNW 10.4 mph - N/A   Overcast
9:35 PM 6.8 °F -6.9 °F 1.4 °F 79% 29.95 in 10.0 mi WNW 9.2 mph - N/A   Overcast
9:55 PM 5.0 °F -8.1 °F -0.4 °F 78% 29.95 in 10.0 mi WNW 8.1 mph - N/A   Scattered Clouds
10:15 PM 1.4 °F -8.3 °F -2.2 °F 85% 29.95 in 10.0 mi WNW 4.6 mph - N/A   Scattered Clouds
10:35 PM -2.2 °F -14.2 °F -5.8 °F 85% 29.95 in 10.0 mi WNW 5.8 mph - N/A   Clear
10:55 PM 1.4 °F -8.3 °F -4.0 °F 78% 29.95 in 10.0 mi NW 4.6 mph - N/A   Mostly Cloudy
11:15 PM 1.4 °F - -4.0 °F 78% 29.95 in 10.0 mi Calm Calm - N/A   Mostly Cloudy
11:35 PM 1.4 °F - -2.2 °F 85% 29.95 in 10.0 mi Calm Calm - N/A   Mostly Cloudy
11:55 PM 3.2 °F - -2.2 °F 78% 29.95 in 10.0 mi Calm Calm - N/A   Mostly Cloudy